This is the latest recevied weather packets stored in our database for station/object W4MLN-3. If no packets are shown the sender has not sent any weather packets the latest 10 day(s).
| Time | Temp. | Humidity | Pressure | Rain* | Wind** | Luminosity | Snow |
|---|---|---|---|---|---|---|---|
| 1788620711 | 28.33° C | 67% | 1018.2 hPa | 0 mm | - | - | - |
| 1788620403 | 28.33° C | 64% | 1018.2 hPa | 0 mm | - | - | - |
| 1788620103 | 28.33° C | 66% | 1018.1 hPa | 0 mm | - | - | - |
| 1788619824 | 27.78° C | 67% | 1018 hPa | 0 mm | - | - | - |
| 1788619503 | 27.78° C | 65% | 1018.2 hPa | 0 mm | - | - | - |
| 1788619225 | 27.78° C | 65% | 1018.2 hPa | 0 mm | - | - | - |
| 1788618904 | 27.78° C | 67% | 1018.2 hPa | 0 mm | - | - | - |
| 1788618603 | 27.78° C | 65% | 1018.4 hPa | 0 mm | - | - | - |
| 1788618325 | 27.78° C | 68% | 1018.3 hPa | 0 mm | - | - | - |
| 1788618003 | 27.78° C | 67% | 1018.5 hPa | 0 mm | - | - | - |
| 1788617703 | 27.22° C | 67% | 1018.4 hPa | 0 mm | - | - | - |
| 1788617403 | 27.78° C | 66% | 1018.4 hPa | 0 mm | - | - | - |
| 1788617103 | 27.78° C | 67% | 1018.3 hPa | 0 mm | - | - | - |
| 1788616803 | 27.78° C | 67% | 1018.3 hPa | 0 mm | - | - | - |
| 1788616524 | 27.22° C | 68% | 1018.1 hPa | 0 mm | - | - | - |
| 1788616203 | 27.22° C | 71% | 1018.1 hPa | 0 mm | - | - | - |
| 1788615903 | 26.67° C | 71% | 1018.2 hPa | 0 mm | - | - | - |
| 1788615624 | 26.67° C | 73% | 1018.1 hPa | 0 mm | - | - | - |
| 1788615303 | 26.11° C | 72% | 1018.1 hPa | 0 mm | - | - | - |
| 1788615003 | 26.11° C | 74% | 1018.2 hPa | 0 mm | - | - | - |
| 1788614703 | 25.56° C | 75% | 1018.2 hPa | 0 mm | - | - | - |
| 1788614403 | 25.56° C | 77% | 1018.4 hPa | 0 mm | - | - | - |
| 1788614103 | 25° C | 78% | 1018.4 hPa | 0 mm | - | - | - |
| 1788613803 | 24.44° C | 81% | 1018.4 hPa | 0 mm | - | - | - |
| 1788613503 | 23.89° C | 82% | 1018.4 hPa | 0 mm | - | - | - |
* Rain latest hour (hover to see other rain measurements)
** Current wind speed in m/s (hover to see current wind gust speed)